Location: *
(44.1106°N, 2.6189°E)
Time: 00:08:05
(UTC+00:00)

Daily predictions for brighter satellites

Satellite Brightness Start Highest point End
(mag) Time Altitude Azimuth Time Altitude Azimuth Time Altitude Azimuth
FALCON 9 R/B 4.3 03:58:23 16° SSE 03:58:23 16° SSE 03:59:37 10° SSE
SJ 16-02 4.0 03:59:59 17° ENE 03:59:59 17° ENE 04:02:26 10° E
BREEZE-M DEB (TANK) 4.0 04:13:17 70° N 04:13:41 71° NNE 04:32:39 10° ESE
Meteor 2-5 Rocket 4.5 04:14:15 47° NE 04:14:51 49° ENE 04:20:19 10° SSE
Cosmos 1844 Rocket 3.3 04:15:58 53° E 04:15:58 53° E 04:20:49 10° SE
Cosmos 2333 Rocket 3.9 04:14:26 10° SSE 04:19:14 30° ESE 04:24:04 10° NE
ADEOS 3.8 04:26:09 10° NNE 04:31:22 65° ESE 04:31:39 64° ESE
Meteor 2-11 Rocket 4.5 04:35:23 66° N 04:35:23 66° N 04:40:40 10° N
Cosmos 2219 Rocket 3.5 04:32:15 10° S 04:37:20 37° ESE 04:42:25 10° NE
COSMOS 2428 4.4 04:33:10 10° SSE 04:38:09 32° ESE 04:43:09 10° NE
Cosmos 2233 Rocket 3.9 04:35:28 10° S 04:41:44 87° E 04:48:01 10° N
Cosmos 44 3.5 04:48:07 77° S 04:48:07 77° S 04:53:13 10° SSE
METEOR-M 4.2 04:43:36 10° N 04:48:02 61° N 04:48:02 61° N
SL-16 R/B 3.8 04:55:44 21° N 04:55:44 21° N 04:58:04 10° N
USA 215 4.4 04:51:26 10° ENE 04:56:50 29° N 04:58:40 25° NNW
CZ-4B R/B 3.6 04:53:45 10° NNE 04:57:13 45° E 05:00:42 10° S
deb Chang Zheng 4 3.8 04:54:57 10° NNE 04:59:13 64° ESE 05:03:24 10° S
Cosmos 1932 4.4 04:57:35 29° SSW 05:01:09 90° ESE 05:07:39 10° NE
Cosmos 2322 Rocket 3.5 05:03:53 25° NNW 05:03:53 25° NNW 05:06:49 10° N
Meteor 1-24 Rocket 3.5 05:00:43 31° NNW 05:03:28 84° W 05:09:02 10° S
Cosmos 2360 Rocket 2.3 05:04:24 52° NW 05:04:24 52° NW 05:09:33 10° NNE
USA 276 3.7 05:06:02 35° E 05:06:02 35° E 05:08:03 10° ESE
IRIDIUM 106 4.4 05:01:33 10° S 05:06:45 77° E 05:11:59 10° N
Cosmos 1758 4.3 05:04:14 10° SSE 05:08:05 48° E 05:12:00 10° NNE
Cosmos 1892 Rocket 4.1 05:07:07 13° N 05:10:53 56° E 05:15:10 10° SSE
SAR-Lupe-4 3.8 05:12:34 10° SSE 05:16:07 66° ENE 05:17:07 43° N
Cosmos 990 Rocket 4.5 05:13:55 15° N 05:18:12 58° ENE 05:23:15 10° SE
COSMO-SKYMED 1 2.5 05:18:46 10° S 05:23:02 57° W 05:23:31 53° WNW
Cosmos 1844 3.9 05:23:43 36° WNW 05:25:41 52° WSW 05:31:16 10° S
GEOS 3 Rocket 4.0 05:20:39 10° SSE 05:25:47 48° WSW 05:27:19 38° WNW
SAR-Lupe-1 3.9 05:24:06 10° SSE 05:27:40 90° WNW 05:28:57 38° NNW
Cosmos 1898 Rocket 3.7 05:30:05 11° NNW 05:35:08 70° ENE 05:40:17 10° SSE
Lacrosse 5 rocket 3.3 05:34:21 15° N 05:35:47 18° NNE 05:38:27 10° ENE
Cosmos 1867 4.1 05:35:55 33° WNW 05:37:05 37° NW 05:42:09 10° NNE
Cosmos 1470 2.8 05:33:33 10° SSW 05:37:19 51° W 05:41:06 10° N
BREEZE-M DEB (TANK) 3.0 05:38:45 30° NNE 05:38:45 30° NNE 05:40:17 10° NE
SJ 16-02 1.5 05:37:01 36° NW 05:38:20 50° WSW 05:42:33 10° S
Okean 1-7 Rocket 3.8 05:33:49 10° N 05:38:23 73° E 05:42:54 10° SSE
Cosmos 1763 Rocket 3.5 05:38:03 10° SSW 05:43:11 85° ESE 05:48:25 10° NNE
Meteor PRIRODA 3.7 05:40:05 10° N 05:43:35 47° WNW 05:47:04 10° SSW
Cosmos 1689 Rocket 2.0 05:40:47 10° S 05:43:39 56° W 05:43:39 56° W
Cosmos 921 Rocket 3.0 05:39:23 10° SSW 05:43:41 82° ESE 05:47:56 10° NNE
YAOGAN 6 2.6 05:40:39 10° NNE 05:44:21 82° E 05:48:02 10° S
Cosmos 1544 Rocket 3.8 05:42:19 10° S 05:46:37 70° E 05:50:56 10° NNE
Cosmos 2034 Rocket 4.3 05:40:28 10° S 05:46:48 75° E 05:53:11 10° N
GPS 2-04 Rocket1 4.5 05:45:15 17° SW 05:47:19 24° S 05:50:42 10° SE
ERS-2 2.8 05:45:19 10° SSW 05:48:37 32° W 05:48:37 32° W
PSLV R/B 4.1 05:46:31 10° S 05:50:29 49° W 05:53:40 15° NNW
Cosmos 1356 Rocket 3.8 05:48:08 10° SW 05:51:54 38° WNW 05:55:46 10° N
BREEZE M DEB (TANK) 1.7 05:52:14 39° SW 05:52:22 40° SW 05:54:21 10° SE
Cosmos 1461 3.9 05:48:34 10° SSW 05:53:07 57° ESE 05:57:48 10° NE
Cosmos 2084 3.4 05:50:25 12° SW 05:54:15 65° NW 05:58:35 10° NNE
SL-8 R/B 4.0 05:52:30 25° WNW 05:55:13 59° NNE 06:00:00 10° E
MOS 1 Rocket 3.8 05:53:18 10° SSW 05:58:11 42° W 06:02:51 10° NNW
Cosmos 2278 Rocket 2.5 05:52:46 10° NNW 05:58:29 70° ENE 06:04:07 10° SSE
Cosmos 1844 Rocket 3.8 05:57:41 21° W 05:58:47 22° W 06:02:59 10° SSW
DMSP B5D1-3 4.5 05:56:04 10° S 06:01:09 67° WSW 06:06:15 10° NNW
Cosmos 2322 4.1 05:56:15 10° SW 06:01:34 39° WNW 06:06:56 10° NNE
Cosmos 2333 Rocket 2.5 05:57:56 10° SW 06:03:18 43° WNW 06:08:42 10° NNE
Cosmos 1726 2.6 06:01:06 10° SW 06:04:31 35° WNW 06:07:59 10° N
Nadezhda 4 Rocket 3.9 05:58:43 10° N 06:04:53 82° W 06:10:59 10° S
NOAA 6 4.0 06:00:48 10° NNE 06:06:00 88° WNW 06:11:12 10° SSW
Meteor 2-10 4.4 06:00:52 10° SSW 06:06:20 47° WNW 06:11:43 10° N
Cosmos 1626 Rocket 3.8 06:02:09 10° N 06:06:38 77° E 06:11:06 10° SSE
PSLV R/B 3.8 06:03:23 10° N 06:07:15 62° WNW 06:11:10 10° SSW
Cosmos 2237 Rocket 2.6 06:04:10 10° SSW 06:09:46 67° ESE 06:15:25 10° NNE
Cosmos 468 Rocket 4.1 06:05:06 10° SW 06:10:11 53° WNW 06:15:23 10° NNE
H-2A R/B 3.4 06:07:32 10° N 06:10:47 29° WNW 06:14:00 10° SW
Okean O Rocket 2.4 06:09:14 10° NNE 06:13:34 56° E 06:17:50 10° S
Cosmos 1455 Rocket 3.5 06:10:03 10° SW 06:14:08 38° WNW 06:18:13 10° N
BREEZE-M DEB (TANK) 3.3 06:12:23 10° SW 06:15:24 66° SE 06:24:42 10° ENE
Cosmos 1937 Rocket 3.5 06:10:52 10° NNW 06:16:11 73° WSW 06:21:23 10° S
Cosmos 1340 3.0 06:13:16 10° N 06:17:02 68° ENE 06:20:45 10° SSE
Cosmos 1953 2.3 06:13:48 10° SSW 06:17:43 55° W 06:21:39 10° N
Envisat 3.1 06:13:22 10° N 06:18:16 50° WNW 06:23:10 10° SW
Cosmos 2219 Rocket 2.7 06:16:10 10° WSW 06:21:16 35° NW 06:26:23 10° N
COSMOS 2428 3.1 06:16:55 10° SW 06:22:17 41° WNW 06:27:41 10° NNE
Cosmos 1943 Rocket 4.2 06:19:53 10° N 06:24:18 23° NE 06:28:41 10° E
CZ-2C R/B 2.5 06:21:23 10° S 06:26:33 74° WSW 06:31:50 10° NNW
Cosmos 44 Rocket 3.5 06:21:18 10° NNW 06:26:33 83° NE 06:31:46 10° SE
Cosmos 372 Rocket 4.2 06:25:35 10° NNW 06:30:52 80° ENE 06:36:07 10° SSE
CZ-4B R/B 4.4 06:30:18 10° NW 06:31:57 13° WNW 06:33:37 10° W
DMSP B5D2-2 4.1 06:27:07 10° SSE 06:32:21 90° WSW 06:37:39 10° NNW
Lacrosse 4 Rocket 3.8 06:31:00 10° S 06:34:38 30° ESE 06:38:23 10° NE
USA 215 4.1 06:32:49 10° E 06:38:50 41° NNE 06:44:52 10° NW
USA 276 3.7 06:38:26 10° W 06:40:56 22° SW 06:43:25 10° SSE
Cosmos 1980 3.7 06:35:58 10° SW 06:41:35 67° WNW 06:47:15 10° NNE
NOAA 11 4.2 06:36:32 10° NNE 06:42:03 82° WNW 06:47:29 10° SSW
Cosmos 2026 Rocket 4.1 06:36:30 10° N 06:42:51 88° W 06:49:14 10° S
CZ-2D R/B 4.3 06:40:55 10° NNE 06:44:38 50° E 06:48:19 10° S
Cosmos 1602 Rocket 3.7 06:40:46 10° NNW 06:45:08 56° W 06:49:29 10° S
Cosmos 2360 Rocket 4.0 06:47:42 10° NW 06:49:23 11° NW 06:51:04 10° NNW
FALCON 9 DEB 4.0 06:46:13 10° SW 06:49:32 53° SE 06:52:52 10° ENE
CORIOLIS 4.1 06:44:18 10° N 06:49:37 67° WNW 06:54:53 10° SSW
Cosmos 1300 3.0 06:47:03 10° S 06:50:49 73° E 06:54:37 10° NNE
H-2A R/B 4.3 06:46:29 10° NNE 06:51:12 31° E 06:55:58 10° SSE
